#timestamp,LO_Frequency,Hit,StdDev 
1510948815.4,286046998.1,N
1510948835.3,286046998.2,N
1510948855.1,286047001.2,N
1510948875.8,286046999.4,N
1510948895.7,286046996.8,N
1510948915.5,286046998.7,N
1510948935.4,286047000.4,N
1510948955.2,286047002.4,N
1510948975.0,286047000.1,N
1510948975.9,286047000.1,N
1510948995.8,286047002.3,N
1510949015.6,286047000.1,N
1510949035.4,286046998.3,N
1510949055.3,286047001.0,N
1510949075.1,286046998.9,N
1510949095.9,286046997.5,N
1510949115.7,286046998.2,N
1510949135.5,286046998.6,N
1510949155.4,286046998.6,N
1510949175.2,286046998.7,N
1510949195.0,286046996.9,N
1510949195.9,286046996.9,N
1510949215.8,286046997.8,N
1510949235.6,286046997.2,N
1510949255.5,286046999.5,N
1510949275.3,286046997.4,N
1510949295.1,286046997.0,N
1510949315.9,286046998.3,N
1510949335.7,286046999.4,N
1510949355.5,286046997.3,N
1510949375.4,286046996.9,N
1510949395.2,286046996.5,N
1510949415.1,286046996.8,N
1510949416.0,286046996.8,N
1510949435.8,286046998.8,N
1510949455.6,286046999.0,N
1510949475.5,286046997.4,N
1510949495.3,286046996.6,N
1510949515.1,286046998.8,N
1510949535.9,286046998.8,N
1510949555.7,286046995.0,Y
1510949575.6,286046998.6,P
1510949595.4,286046998.7,P
1510949615.2,286046998.6,P
1510949635.1,286046999.0,Y
1510949636.0,286046999.0,P
1510949655.8,286047000.9,P
1510949675.7,286047000.5,N
1510949695.5,286046999.9,N
1510949715.3,286046998.8,N
1510949735.2,286046998.8,N
1510949755.0,286047001.0,N
1510949755.9,286047001.0,N
1510949775.8,286046999.4,N
1510949795.6,286046999.1,N
1510949815.4,286046998.6,N
1510949835.3,286046999.4,N
1510949855.1,286046998.6,N
1510949875.8,286046998.1,N
1510949895.7,286047000.8,N
1510949915.5,286046996.9,Y
1510949935.4,286046999.4,P
1510949955.2,286046999.6,P
1510949975.0,286046998.3,P
1510949976.0,286046998.3,Y
1510949995.8,286047000.9,P
1510950015.6,286046998.5,N
1510950035.5,286046996.6,P
1510950055.3,286046996.6,N
1510950075.1,286046999.6,N
1510950095.9,286046999.2,N
1510950115.7,286046996.9,N
1510950135.6,286046999.3,N
1510950155.4,286046998.7,N
1510950175.2,286047000.5,N
1510950195.1,286046996.5,N
1510950196.0,286046996.5,N
1510950215.8,286046997.9,N
1510950235.7,286046993.3,Y
1510950255.5,286046997.2,P
1510950275.3,286046996.7,P
1510950295.2,286046996.8,P
1510950315.9,286046996.5,Y
1510950335.7,286047000.1,P
1510950355.6,286046999.7,N
1510950375.4,286047001.2,N
1510950395.3,286046999.8,N
1510950415.1,286047003.7,N
1510950416.0,286047003.7,N
1510950435.8,286047001.5,N
1510950455.7,286047003.4,N
1510950475.5,286047001.5,N
1510950495.3,286047004.4,N
1510950515.2,286047001.7,N
1510950535.0,286047004.3,N
1510950535.9,286047004.3,N
1510950555.8,286047002.0,N
1510950575.6,286047000.9,N
1510950595.4,286047002.4,N
1510950615.3,286047002.8,N
1510950635.1,286047000.5,N
1510950655.8,286046999.7,N
1510950675.7,286047000.8,N
1510950695.5,286046998.9,N
1510950715.4,286047001.2,N
1510950735.2,286047000.8,N
1510950755.0,286046999.4,N
1510950755.9,286046999.4,N
1510950775.8,286047000.9,N
1510950795.6,286046998.3,N
1510950815.5,286046998.2,N
1510950835.3,286046998.4,N
1510950855.1,286046998.3,N
1510950875.9,286047000.9,N
1510950895.7,286047000.3,N
1510950915.6,286047002.7,N
1510950935.4,286047000.3,N
1510950955.2,286046999.8,N
1510950975.1,286047000.4,N
1510950976.0,286047000.4,N
1510950995.8,286046999.8,N
1510951015.7,286046999.9,N
1510951035.5,286047002.8,N
1510951055.3,286047002.4,N
1510951075.2,286047000.4,N
1510951095.0,286047000.0,N
1510951095.9,286047000.0,N
1510951115.8,286047000.8,N
1510951135.6,286047000.3,N
1510951155.4,286047000.6,N
1510951175.3,286047000.3,N
1510951195.1,286046999.9,N
1510951215.8,286046999.8,N
1510951235.7,286047000.7,N
1510951255.5,286046998.1,N
1510951275.4,286046998.1,N
1510951295.2,286046998.6,N
1510951315.0,286046998.5,N
1510951315.9,286046998.5,N
1510951335.8,286047000.0,N
1510951355.6,286047000.3,N
1510951375.5,286047000.7,N
1510951395.3,286046998.2,N
1510951415.1,286047001.2,N
1510951435.9,286046999.5,N
1510951455.7,286046999.1,N
1510951475.5,286046999.2,N
1510951495.4,286046997.0,N
1510951515.2,286046999.5,N
1510951535.1,286046996.6,N
1510951536.0,286046996.6,N
1510951555.8,286046998.4,N
1510951575.6,286046998.9,N
1510951595.5,286046996.8,N
1510951615.3,286046997.3,N
1510951635.1,286046999.0,N
1510951655.9,286046998.7,N
1510951675.7,286047000.1,N
1510951695.6,286047002.8,N
1510951715.4,286047000.4,N
1510951735.2,286047001.0,N
1510951755.1,286047000.1,N
1510951756.0,286047000.1,N
1510951775.8,286047004.3,N
1510951795.7,286047001.6,N
1510951815.5,286047001.5,N
1510951835.3,286046999.9,N
1510951855.2,286047001.1,N
1510951875.0,286046999.4,N
1510951875.9,286046999.4,N
1510951895.8,286046998.4,N
1510951915.6,286046999.0,N
1510951935.4,286046998.1,N
1510951955.3,286047000.0,N
1510951975.1,286047000.4,N
1510951995.9,286047000.8,N
1510952015.7,286046999.8,N
1510952035.5,286047002.2,N
1510952055.4,286047001.6,N
1510952075.2,286046999.8,N
1510952095.0,286047000.4,N
1510952095.9,286047000.4,N
1510952115.8,286047000.5,N
1510952135.6,286047000.6,N
1510952155.5,286046998.7,N
1510952175.3,286046999.0,N
1510952195.1,286046999.6,N
1510952215.9,286047000.7,N
1510952235.7,286046999.9,N
1510952255.5,286047000.1,N
1510952275.4,286047000.1,N
1510952295.2,286047002.3,N
1510952315.1,286047002.2,N
1510952316.0,286047002.2,N
1510952335.8,286047002.3,N
1510952355.6,286047002.3,N
1510952375.5,286047004.0,Y
1510952395.3,286047003.9,P
